GW6587 Weather Reports


Display with metric or nautical units.
time (UTC)temp
F
wind
direction
speed
MPH
gust
MPH
rain 1hr
in
rain 24hr
in
rain mn
in
humidity
%
barometer
mb
20260505124926 37 206 2.0 4.0 0.02 0.08 0.08 93 1014.1
20260505124423 37 135 4.0 6.0 0.02 0.07 0.07 93 1014.0
20260505123919 37 63 2.0 9.0 0.05 0.07 0.07 93 1013.7
20260505123416 37 144 3.0 5.0 0.02 0.07 0.07 93 1013.6
20260505122911 37 99 3.0 5.0 0.02 0.07 0.07 93 1013.6
20260505122409 38 112 4.0 6.0 0.05 0.07 0.07 93 1013.7
20260505121906 38 100 3.0 6.0 0.02 0.06 0.06 93 1013.6
20260505121403 38 130 5.0 5.0 0.02 0.06 0.06 92 1013.4
20260505120859 38 186 1.0 6.0 0.07 0.06 0.06 92 1013.5
20260505120355 39 122 6.0 6.0 0.12 0.06 0.06 92 1013.1
20260505115854 39 135 3.0 7.0 0.09 0.05 0.05 92 1013.2
20260505115351 39 128 2.0 9.0 0.09 0.04 0.04 92 1013.2
20260505114849 40 113 5.0 6.0 0.09 0.03 0.03 92 1013.1
20260505114345 40 119 3.0 7.0 0.09 0.02 0.02 91 1012.9
20260505113842 40 115 3.0 6.0 0.05 0.01 0.01 91 1013.1
20260505113338 41 107 2.0 10.0 0.05 0.01 0.01 90 1012.9
20260505112834 42 106 3.0 6.0 0.02 0.00 0.00 90 1012.7
20260505112332 42 121 6.0 6.0 0.00 0.00 0.00 89 1012.9
20260505111827 42 108 3.0 5.0 0.00 0.00 0.00 89 1012.7
20260505111323 42 115 2.0 2.0 0.00 0.00 0.00 89 1012.5
20260505110819 42 103 4.0 11.0 0.00 0.00 0.00 88 1012.5
20260505110317 42 128 3.0 6.0 0.00 0.00 0.00 88 1012.3
20260505101751 43 135 6.0 9.0 0.00 0.00 0.00 85 1011.8
20260505101247 43 110 5.0 6.0 0.00 0.00 0.00 84 1011.6
20260505100743 44 111 7.0 8.0 0.00 0.00 0.00 84 1011.6
20260505100240 44 176 2.0 6.0 0.00 0.00 0.00 85 1011.6
20260505095735 44 124 6.0 7.0 0.00 0.00 0.00 85 1011.7
20260505095234 44 117 5.0 8.0 0.00 0.00 0.00 84 1011.5
20260505094729 44 124 3.0 6.0 0.00 0.00 0.00 83 1011.6
20260505094226 44 107 3.0 8.0 0.00 0.00 0.00 83 1011.6
20260505093722 45 153 2.0 9.0 0.00 0.00 0.00 84 1011.7
20260505093219 45 101 5.0 7.0 0.00 0.00 0.00 84 1011.8
20260505092716 45 117 5.0 6.0 0.00 0.00 0.00 84 1011.6
20260505092215 45 126 4.0 11.0 0.00 0.00 0.00 84 1011.8
20260505091712 45 118 4.0 6.0 0.00 0.00 0.00 85 1011.8
20260505091210 46 143 3.0 10.0 0.00 0.00 0.00 86 1011.7
20260505090707 46 116 2.0 4.0 0.00 0.00 0.00 88 1011.6
20260505090205 46 112 3.0 5.0 0.00 0.00 0.00 88 1011.6
20260505085702 46 107 2.0 5.0 0.00 0.00 0.00 88 1011.7
20260505085200 46 120 3.0 3.0 0.00 0.00 0.00 87 1011.7
20260505084657 46 138 2.0 4.0 0.00 0.00 0.00 85 1011.7
20260505084156 47 109 3.0 5.0 0.00 0.00 0.00 83 1011.8
20260505083653 47 101 3.0 5.0 0.00 0.00 0.00 82 1011.7
20260505083149 47 107 2.0 6.0 0.00 0.00 0.00 82 1011.8
20260505082645 47 116 3.0 3.0 0.00 0.00 0.00 82 1011.9
20260505082143 47 120 3.0 3.0 0.00 0.00 0.00 81 1012.1
20260505081638 47 105 2.0 4.0 0.00 0.00 0.00 81 1012.1
20260505081136 47 112 2.0 6.0 0.00 0.00 0.00 82 1011.8
20260505080633 47 106 2.0 6.0 0.00 0.00 0.00 83 1012.2
20260505080129 47 92 2.0 3.0 0.00 0.00 0.00 83 1011.9
20260505075625 47 92 2.0 4.0 0.00 0.00 0.00 82 1012.1
20260505075122 47 131 4.0 5.0 0.00 0.00 0.00 82 1012.1
20260505074619 47 128 3.0 5.0 0.00 0.00 0.00 81 1012.1
20260505074116 47 120 3.0 6.0 0.00 0.00 0.00 82 1012.1
20260505073614 47 88 2.0 8.0 0.00 0.00 0.00 83 1012.5
20260505073112 47 116 3.0 5.0 0.00 0.00 0.00 85 1012.3
20260505072607 47 117 3.0 4.0 0.00 0.00 0.00 84 1012.5
20260505072104 47 132 4.0 6.0 0.00 0.00 0.00 84 1012.3
20260505071559 47 124 3.0 3.0 0.00 0.00 0.00 84 1012.7
20260505071057 47 102 4.0 4.0 0.00 0.00 0.00 84 1012.7
20260505070554 47 126 3.0 4.0 0.00 0.00 0.00 83 1012.5
20260505070050 47 110 3.0 6.0 0.00 0.00 0.00 84 1012.4
20260505065546 47 151 4.0 5.0 0.00 0.00 0.00 84 1012.8
20260505065043 47 89 2.0 4.0 0.00 0.00 0.00 83 1012.5
20260505064540 47 88 2.0 5.0 0.00 0.00 0.00 83 1012.8
20260505064038 48 125 3.0 4.0 0.00 0.00 0.00 83 1012.7
20260505063535 48 123 3.0 4.0 0.00 0.00 0.00 84 1012.8
20260505063031 48 118 4.0 4.0 0.00 0.00 0.00 84 1013.0
20260505062528 47 109 3.0 5.0 0.00 0.00 0.00 85 1012.7
20260505062025 47 128 5.0 6.0 0.00 0.00 0.00 89 1012.7
20260505061523 47 104 2.0 3.0 0.00 0.00 0.00 91 1012.8
20260505061020 47 82 2.0 4.0 0.00 0.00 0.00 91 1012.8
20260505060518 47 107 4.0 4.0 0.00 0.00 0.00 91 1013.0
20260505060014 47 78 2.0 2.0 0.00 0.06 0.06 91 1012.9
20260505055509 47 99 3.0 4.0 0.00 0.06 0.06 91 1012.8
20260505055006 47 116 2.0 4.0 0.00 0.06 0.06 91 1012.9
20260505054504 47 98 3.0 4.0 0.00 0.06 0.06 91 1012.7
20260505054002 47 130 3.0 4.0 0.00 0.06 0.06 91 1012.5
20260505053459 47 68 3.0 4.0 0.00 0.06 0.06 91 1012.8
20260505052955 47 106 2.0 3.0 0.02 0.06 0.06 92 1012.5
20260505052453 47 89 2.0 3.0 0.02 0.06 0.06 91 1012.7
20260505051949 47 118 3.0 3.0 0.02 0.06 0.06 92 1012.8
20260505051446 47 44 0.0 2.0 0.05 0.06 0.06 91 1013.2
20260505050945 47 135 0.0 2.0 0.02 0.05 0.05 91 1013.1
20260505050443 47 97 1.0 2.0 0.02 0.05 0.05 91 1013.0
20260505041410 48 302 2.0 3.0 0.12 0.03 0.03 87 1013.5
20260505040907 49 293 4.0 6.0 0.09 0.02 0.02 84 1013.0
20260505040405 50 284 1.0 5.0 0.07 0.01 0.01 79 1013.1
20260505035901 51 281 4.0 4.0 0.02 0.00 0.00 73 1012.9
20260505035357 52 287 5.0 5.0 0.00 0.00 0.00 69 1012.7
20260505034855 52 352 0.0 3.0 0.00 0.00 0.00 66 1012.9
20260505034351 52 286 1.0 5.0 0.00 0.00 0.00 63 1012.7
20260505033848 52 206 2.0 4.0 0.00 0.00 0.00 62 1012.7
20260505033345 52 198 2.0 4.0 0.00 0.00 0.00 62 1012.7
20260505032843 52 346 2.0 3.0 0.00 0.00 0.00 62 1012.2
20260505032339 52 110 1.0 7.0 0.00 0.00 0.00 62 1012.1
20260505031837 52 113 0.0 2.0 0.00 0.00 0.00 62 1012.1
20260505031333 52 101 2.0 4.0 0.00 0.00 0.00 61 1011.8
20260505030831 53 114 3.0 5.0 0.00 0.00 0.00 61 1011.8
20260505030326 53 62 4.0 5.0 0.00 0.00 0.00 59 1011.7
20260505025822 53 113 3.0 4.0 0.00 0.00 0.00 58 1011.7
20260505025320 53 131 0.0 4.0 0.00 0.00 0.00 57 1011.7
20260505024818 53 142 1.0 3.0 0.00 0.00 0.00 58 1011.2
20260505024315 53 121 2.0 3.0 0.00 0.00 0.00 58 1011.3
20260505023812 53 128 2.0 4.0 0.00 0.00 0.00 58 1011.6
20260505023309 53 187 0.0 3.0 0.00 0.00 0.00 58 1011.6
20260505022807 53 107 2.0 3.0 0.00 0.00 0.00 57 1011.5
20260505022304 53 77 2.0 5.0 0.00 0.00 0.00 57 1011.5
20260505021800 52 108 2.0 4.0 0.00 0.00 0.00 59 1011.5
20260505021257 52 101 3.0 4.0 0.00 0.00 0.00 60 1011.5
20260505020753 52 131 3.0 4.0 0.00 0.00 0.00 59 1011.7
20260505020248 52 122 2.0 3.0 0.00 0.00 0.00 59 1011.5
20260505015746 52 105 5.0 6.0 0.00 0.00 0.00 59 1011.3
20260505015243 53 118 2.0 5.0 0.00 0.00 0.00 60 1011.1
20260505014740 53 96 4.0 7.0 0.00 0.00 0.00 57 1011.0
20260505014237 54 357 3.0 3.0 0.00 0.00 0.00 55 1010.7
20260505013733 55 107 3.0 3.0 0.00 0.00 0.00 52 1010.7
20260505013231 55 92 2.0 4.0 0.00 0.00 0.00 50 1010.7
20260505012729 55 132 3.0 6.0 0.00 0.00 0.00 51 1010.9
20260505012226 55 314 3.0 4.0 0.00 0.00 0.00 51 1011.0
20260505011721 55 349 2.0 10.0 0.00 0.00 0.00 50 1011.0
20260505011219 55 310 2.0 6.0 0.00 0.00 0.00 50 1011.1
20260505010714 55 328 3.0 9.0 0.00 0.00 0.00 51 1010.9
20260505010211 55 46 7.0 9.0 0.00 0.00 0.00 51 1010.9
20260505005707 56 314 3.0 8.0 0.00 0.00 0.00 50 1010.7
20260505005205 57 302 2.0 9.0 0.00 0.00 0.00 46 1011.0
20260505004702 58 324 3.0 12.0 0.00 0.00 0.00 42 1010.6
20260505004158 59 348 2.0 4.0 0.00 0.00 0.00 40 1010.6
20260505003656 59 3 2.0 12.0 0.00 0.00 0.00 39 1010.6
20260505003153 59 343 4.0 9.0 0.00 0.00 0.00 39 1010.4
20260505002649 59 83 0.0 8.0 0.00 0.00 0.00 39 1010.5
20260505002147 59 52 3.0 7.0 0.00 0.00 0.00 39 1010.5
20260505001644 59 279 2.0 9.0 0.00 0.00 0.00 39 1010.3
20260505001142 60 301 2.0 7.0 0.00 0.00 0.00 38 1010.2
20260505000638 59 288 4.0 8.0 0.00 0.00 0.00 38 1009.9
20260505000137 60 292 4.0 11.0 0.00 0.00 0.00 37 1010.0
20260504235632 61 282 6.0 18.0 0.00 0.00 0.00 35 1009.8
20260504235129 62 98 2.0 12.0 0.00 0.00 0.00 31 1009.8
20260504234626 62 207 2.0 9.0 0.00 0.00 0.00 31 1009.8
20260504234124 62 52 9.0 12.0 0.00 0.00 0.00 31 1010.0
20260504233619 62 33 6.0 14.0 0.00 0.00 0.00 30 1009.8
20260504233115 63 27 8.0 10.0 0.00 0.00 0.00 30 1009.7
20260504232613 63 224 3.0 7.0 0.00 0.00 0.00 30 1009.6
20260504232110 63 8 2.0 12.0 0.00 0.00 0.00 30 1009.4
20260504231607 63 312 3.0 6.0 0.00 0.00 0.00 30 1009.7
20260504231103 64 11 4.0 6.0 0.00 0.00 0.00 29 1009.4
20260504230559 64 12 4.0 9.0 0.00 0.00 0.00 29 1009.3
20260504230058 64 49 5.0 11.0 0.00 0.00 0.00 30 1009.2
20260504225555 64 10 2.0 13.0 0.00 0.00 0.00 29 1009.0
20260504225052 65 334 2.0 8.0 0.00 0.00 0.00 28 1009.1
20260504224548 65 299 6.0 17.0 0.00 0.00 0.00 28 1009.0
20260504224046 65 36 0.0 12.0 0.00 0.00 0.00 28 1009.0
20260504223543 64 116 2.0 15.0 0.00 0.00 0.00 28 1009.2
20260504223038 64 288 1.0 11.0 0.00 0.00 0.00 29 1009.0
20260504222535 64 25 7.0 11.0 0.00 0.00 0.00 28 1009.3
20260504222033 64 83 5.0 9.0 0.00 0.00 0.00 28 1009.0
20260504221530 64 342 2.0 16.0 0.00 0.00 0.00 28 1009.1
20260504221027 66 1 4.0 13.0 0.00 0.00 0.00 27 1008.8
20260504220523 66 331 4.0 12.0 0.00 0.00 0.00 26 1008.6
20260504220020 68 42 11.0 13.0 0.00 0.00 0.00 23 1008.6
20260504215516 68 26 5.0 10.0 0.00 0.00 0.00 21 1008.4
20260504215014 69 356 2.0 6.0 0.00 0.00 0.00 21 1008.5
20260504214510 69 32 4.0 7.0 0.00 0.00 0.00 21 1008.7
20260504214006 68 283 2.0 5.0 0.00 0.00 0.00 21 1008.7
20260504213503 69 281 4.0 8.0 0.00 0.00 0.00 20 1008.6
20260504213000 70 307 4.0 6.0 0.00 0.00 0.00 20 1009.0
20260504212456 71 272 2.0 11.0 0.00 0.00 0.00 20 1008.8
20260504211954 73 272 2.0 4.0 0.00 0.00 0.00 19 1008.7
20260504211450 72 281 4.0 7.0 0.00 0.00 0.00 20 1009.2
20260504210948 71 309 2.0 9.0 0.00 0.00 0.00 20 1009.1
20260504210444 71 299 6.0 9.0 0.00 0.00 0.00 20 1009.0
20260504205941 71 267 5.0 9.0 0.00 0.00 0.00 21 1009.1
20260504205439 71 306 5.0 9.0 0.00 0.00 0.00 19 1009.0
20260504204937 70 294 4.0 11.0 0.00 0.00 0.00 21 1009.1
20260504204435 70 286 4.0 7.0 0.00 0.00 0.00 20 1009.2
20260504203934 72 349 4.0 11.0 0.00 0.00 0.00 20 1009.2
20260504203431 72 309 3.0 9.0 0.00 0.00 0.00 21 1009.3
20260504202927 72 335 2.0 8.0 0.00 0.00 0.00 20 1009.2
20260504202423 73 282 6.0 9.0 0.00 0.00 0.00 19 1009.2
20260504201920 72 321 3.0 5.0 0.00 0.00 0.00 19 1009.3
20260504201418 72 283 3.0 8.0 0.00 0.00 0.00 19 1009.3
20260504200915 72 315 2.0 6.0 0.00 0.00 0.00 21 1009.2
20260504200412 72 296 4.0 6.0 0.00 0.00 0.00 20 1009.3
20260504195908 73 302 3.0 11.0 0.00 0.00 0.00 20 1009.3
20260504195404 73 31 2.0 6.0 0.00 0.00 0.00 19 1009.3
20260504194901 72 279 4.0 4.0 0.00 0.00 0.00 20 1009.4
20260504194356 71 288 4.0 7.0 0.00 0.00 0.00 20 1009.4
20260504193853 70 271 2.0 12.0 0.00 0.00 0.00 22 1009.4
20260504193350 69 319 3.0 4.0 0.00 0.00 0.00 23 1009.7
20260504192849 68 278 4.0 6.0 0.00 0.00 0.00 23 1009.7
20260504192346 67 285 4.0 9.0 0.00 0.00 0.00 23 1009.6
20260504191844 67 312 2.0 7.0 0.00 0.00 0.00 23 1009.8
20260504191342 66 291 6.0 9.0 0.00 0.00 0.00 23 1009.8
20260504190837 65 315 5.0 10.0 0.00 0.00 0.00 23 1009.7
20260504190333 67 252 5.0 14.0 0.00 0.00 0.00 21 1009.8
20260504185830 68 304 3.0 10.0 0.00 0.00 0.00 21 1009.6
20260504185327 68 304 6.0 6.0 0.00 0.00 0.00 21 1009.4
20260504184823 68 358 2.0 7.0 0.00 0.00 0.00 20 1009.4
20260504184319 68 27 2.0 4.0 0.00 0.00 0.00 20 1009.4
20260504183815 69 346 0.0 5.0 0.00 0.00 0.00 21 1009.7
20260504183312 69 285 4.0 4.0 0.00 0.00 0.00 19 1009.3
20260504182810 70 271 7.0 7.0 0.00 0.00 0.00 19 1009.7
20260504182308 69 342 0.0 5.0 0.00 0.00 0.00 20 1009.4
20260504181805 70 328 4.0 9.0 0.00 0.00 0.00 19 1009.7
20260504181302 70 287 3.0 6.0 0.00 0.00 0.00 19 1009.6
20260504180801 71 331 3.0 10.0 0.00 0.00 0.00 18 1009.7
20260504180259 71 288 2.0 6.0 0.00 0.00 0.00 18 1009.7
20260504175756 71 295 2.0 4.0 0.00 0.00 0.00 18 1009.4
20260504175253 71 310 2.0 9.0 0.00 0.00 0.00 18 1009.6
20260504174751 73 290 3.0 8.0 0.00 0.00 0.00 18 1009.8
20260504174249 74 310 4.0 7.0 0.00 0.00 0.00 19 1009.8
20260504173745 73 155 2.0 3.0 0.00 0.00 0.00 18 1010.0
20260504173242 73 347 3.0 6.0 0.00 0.00 0.00 18 1010.4
20260504172739 73 311 2.0 9.0 0.00 0.00 0.00 20 1009.9
20260504172235 73 293 3.0 7.0 0.00 0.00 0.00 20 1009.8
20260504171731 73 287 4.0 8.0 0.00 0.00 0.00 19 1010.3
20260504171229 72 337 2.0 5.0 0.00 0.00 0.00 20 1010.3
20260504170725 71 301 3.0 6.0 0.00 0.00 0.00 20 1010.3
20260504170223 71 286 5.0 11.0 0.00 0.00 0.00 20 1010.3
20260504160141 68 251 4.0 8.0 0.00 0.00 0.00 22 1010.9
20260504151108 66 315 4.0 6.0 0.00 0.00 0.00 24 1011.1
20260504150606 66 299 3.0 5.0 0.00 0.00 0.00 24 1011.2
20260504150103 64 232 3.0 4.0 0.00 0.00 0.00 25 1011.2
20260504141032 57 14 2.0 3.0 0.00 0.00 0.00 32 1011.3
20260504140528 57 79 2.0 4.0 0.00 0.00 0.00 32 1011.2
20260504130453 52 104 3.0 7.0 0.00 0.00 0.00 36 1010.9